• In Kazakhstan
  • List of Countries
  • For 7 days
  • Water Temperature
  • Satellite Maps
  • Weather Map
  • News
  • Weather Widgets
  • user-avatar
    Login

    Hourly Weather Annaba

    Today, 20 March, Wednesday

    Time Temperature Precipitation Wind Pressure Humidity
    00:00 +9°C° 0.2 mm 3 mps 763 mmHg 88%
    01:00 +9°C° 0.2 mm 3 mps 763 mmHg 90%
    02:00 +9°C° 0.1 mm 3 mps 763 mmHg 89%
    03:00 +9°C° 0.1 mm 3 mps 763 mmHg 89%
    04:00 +9°C° 0.1 mm 3 mps 763 mmHg 89%
    05:00 +9°C° 0.2 mm 3 mps 763 mmHg 89%
    06:00 +9°C° 0.2 mm 2 mps 763 mmHg 88%
    07:00 +9°C° 0.2 mm 2 mps 763 mmHg 88%
    08:00 +10°C° 0.6 mm 2 mps 763 mmHg 85%
    09:00 +12°C° 0.6 mm 2 mps 763 mmHg 82%
    10:00 +13°C° 0.6 mm 1 mps 763 mmHg 78%
    11:00 +13°C° 0.7 mm 1 mps 763 mmHg 79%
    12:00 +13°C° 0.7 mm 2 mps 763 mmHg 79%
    13:00 +13°C° 0.7 mm 2 mps 763 mmHg 79%
    14:00 +13°C° 0.9 mm 2 mps 763 mmHg 81%
    15:00 +12°C° 0.9 mm 2 mps 763 mmHg 83%
    16:00 +11°C° 0.9 mm 3 mps 763 mmHg 85%
    17:00 +11°C° 0.6 mm 3 mps 763 mmHg 86%
    18:00 +10°C° 0.6 mm 3 mps 763 mmHg 88%
    19:00 +10°C° 0.6 mm 2 mps 763 mmHg 89%
    20:00 +10°C° 0.3 mm 3 mps 763 mmHg 90%
    21:00 +10°C° 0.3 mm 3 mps 763 mmHg 90%
    22:00 +10°C° 0.3 mm 3 mps 763 mmHg 90%
    23:00 +9°C° 0.9 mm 3 mps 763 mmHg 91%

    Tomorrow, 21 March, Thursday

    Time Temperature Precipitation Wind Pressure Humidity
    00:00 +9°C° 0.9 mm 3 mps 763 mmHg 92%
    01:00 +8°C° 0.9 mm 4 mps 763 mmHg 92%
    02:00 +8°C° 1 mm 4 mps 763 mmHg 93%
    03:00 +8°C° 1 mm 4 mps 762 mmHg 93%
    04:00 +10°C° 1 mm 4 mps 762 mmHg 93%
    05:00 +10°C° 0.4 mm 3 mps 762 mmHg 94%
    06:00 +10°C° 0.4 mm 2 mps 761 mmHg 94%
    07:00 +11°C° 0.4 mm 1 mps 761 mmHg 95%
    08:00 +10°C° 0.6 mm 2 mps 761 mmHg 93%
    09:00 +12°C° 0.6 mm 2 mps 762 mmHg 92%
    10:00 +13°C° 0.6 mm 2 mps 762 mmHg 91%
    11:00 +12°C° 1.2 mm 4 mps 762 mmHg 91%
    12:00 +12°C° 1.2 mm 5 mps 761 mmHg 92%
    13:00 +13°C° 1.2 mm 6 mps 761 mmHg 92%
    14:00 +12°C° 2.2 mm 7 mps 761 mmHg 92%
    15:00 +11°C° 2.2 mm 8 mps 760 mmHg 93%
    16:00 +11°C° 2.2 mm 9 mps 760 mmHg 93%
    17:00 +11°C° 1.4 mm 9 mps 760 mmHg 93%
    18:00 +11°C° 1.4 mm 9 mps 760 mmHg 93%
    19:00 +11°C° 1.4 mm 8 mps 761 mmHg 93%
    20:00 +12°C° 0.5 mm 8 mps 761 mmHg 93%
    21:00 +12°C° 0.5 mm 8 mps 761 mmHg 93%
    22:00 +12°C° 0.5 mm 8 mps 762 mmHg 93%
    23:00 +12°C° 0.5 mm 7 mps 761 mmHg 93%

    Day after tomorrow, 22 March, Friday

    Time Temperature Precipitation Wind Pressure Humidity
    00:00 +13°C° 0.5 mm 6 mps 761 mmHg 94%
    01:00 +11°C° 0.5 mm 6 mps 761 mmHg 94%
    02:00 +12°C° 0.7 mm 5 mps 761 mmHg 94%
    03:00 +12°C° 0.7 mm 5 mps 761 mmHg 95%
    04:00 +12°C° 0.7 mm 4 mps 761 mmHg 95%
    05:00 +12°C° 0.5 mm 4 mps 761 mmHg 95%
    06:00 +12°C° 0.5 mm 4 mps 761 mmHg 94%
    07:00 +11°C° 0.5 mm 3 mps 761 mmHg 94%
    08:00 +13°C° 0 mm 4 mps 762 mmHg 88%
    09:00 +14°C° 0 mm 4 mps 762 mmHg 82%
    10:00 +15°C° 0 mm 4 mps 762 mmHg 77%
    11:00 +15°C° 0.3 mm 4 mps 762 mmHg 76%
    12:00 +15°C° 0.3 mm 5 mps 762 mmHg 75%
    13:00 +16°C° 0.3 mm 5 mps 762 mmHg 74%
    14:00 +15°C° 0.4 mm 5 mps 762 mmHg 75%
    15:00 +15°C° 0.4 mm 5 mps 762 mmHg 76%
    16:00 +15°C° 0.4 mm 4 mps 762 mmHg 78%
    17:00 +14°C° 0.4 mm 4 mps 762 mmHg 81%
    18:00 +13°C° 0.4 mm 3 mps 763 mmHg 84%
    19:00 +12°C° 0.4 mm 3 mps 763 mmHg 87%
    20:00 +12°C° 0.1 mm 2 mps 764 mmHg 88%
    21:00 +12°C° 0.1 mm 1 mps 764 mmHg 88%
    22:00 +11°C° 0.1 mm 1 mps 765 mmHg 89%
    23:00 +11°C° 0 mm 1 mps 765 mmHg 90%

    23 March, Saturday

    Time Temperature Precipitation Wind Pressure Humidity
    00:00 +11°C° 0 mm 1 mps 765 mmHg 90%
    01:00 +11°C° 0 mm 1 mps 765 mmHg 91%
    02:00 +11°C° 0.2 mm 1 mps 765 mmHg 92%
    03:00 +11°C° 0.2 mm 1 mps 765 mmHg 92%
    04:00 +11°C° 0.2 mm 1 mps 765 mmHg 93%
    05:00 +11°C° 0.4 mm 1 mps 765 mmHg 93%
    06:00 +10°C° 0.4 mm 2 mps 765 mmHg 93%
    07:00 +10°C° 0.4 mm 2 mps 765 mmHg 93%
    08:00 +12°C° 0.3 mm 2 mps 765 mmHg 92%
    09:00 +12°C° 0.3 mm 2 mps 765 mmHg 91%
    10:00 +13°C° 0.3 mm 2 mps 765 mmHg 90%
    11:00 +13°C° 0.4 mm 2 mps 765 mmHg 89%
    12:00 +14°C° 0.4 mm 1 mps 765 mmHg 87%
    13:00 +14°C° 0.4 mm 1 mps 765 mmHg 86%
    14:00 +15°C° 0.1 mm 1 mps 765 mmHg 84%
    15:00 +15°C° 0.1 mm 2 mps 765 mmHg 81%
    16:00 +16°C° 0.1 mm 2 mps 764 mmHg 78%
    17:00 +15°C° 0 mm 2 mps 765 mmHg 82%
    18:00 +14°C° 0 mm 2 mps 765 mmHg 87%
    19:00 +12°C° 0 mm 2 mps 765 mmHg 91%
    20:00 +12°C° 0 mm 2 mps 766 mmHg 92%
    21:00 +12°C° 0 mm 2 mps 766 mmHg 92%
    22:00 +11°C° 0 mm 1 mps 766 mmHg 93%
    23:00 +11°C° 0 mm 1 mps 766 mmHg 93%

    24 March, Sunday

    Time Temperature Precipitation Wind Pressure Humidity
    00:00 +11°C° 0 mm 1 mps 766 mmHg 94%
    01:00 +10°C° 0 mm 1 mps 766 mmHg 94%
    02:00 +10°C° 0 mm 1 mps 766 mmHg 94%
    03:00 +10°C° 0 mm 1 mps 766 mmHg 93%
    04:00 +10°C° 0 mm 1 mps 765 mmHg 93%
    05:00 +10°C° 0 mm 1 mps 765 mmHg 93%
    06:00 +10°C° 0 mm 1 mps 765 mmHg 92%
    07:00 +10°C° 0 mm 1 mps 765 mmHg 92%
    08:00 +13°C° 0 mm 1 mps 765 mmHg 85%
    09:00 +15°C° 0 mm 1 mps 765 mmHg 78%
    10:00 +17°C° 0 mm 2 mps 766 mmHg 71%
    11:00 +18°C° 0 mm 2 mps 765 mmHg 67%
    12:00 +19°C° 0 mm 3 mps 765 mmHg 64%
    13:00 +20°C° 0 mm 3 mps 765 mmHg 60%
    14:00 +20°C° 0.1 mm 4 mps 764 mmHg 62%
    15:00 +19°C° 0.1 mm 4 mps 764 mmHg 64%
    16:00 +19°C° 0.1 mm 5 mps 763 mmHg 65%
    17:00 +17°C° 0 mm 5 mps 763 mmHg 72%
    18:00 +15°C° 0 mm 4 mps 763 mmHg 80%
    19:00 +14°C° 0 mm 4 mps 763 mmHg 87%
    20:00 +13°C° 0 mm 4 mps 764 mmHg 88%
    21:00 +12°C° 0 mm 3 mps 764 mmHg 89%
    22:00 +12°C° 0 mm 3 mps 764 mmHg 90%
    23:00 +12°C° 0 mm 2 mps 764 mmHg 90%

    25 March, Monday

    Time Temperature Precipitation Wind Pressure Humidity
    00:00 +12°C° 0 mm 2 mps 764 mmHg 90%
    01:00 +12°C° 0 mm 2 mps 763 mmHg 89%
    02:00 +12°C° 0 mm 2 mps 763 mmHg 89%
    03:00 +10°C° 0 mm 2 mps 763 mmHg 89%
    04:00 +11°C° 0 mm 1 mps 763 mmHg 88%
    05:00 +11°C° 0 mm 1 mps 763 mmHg 88%
    06:00 +11°C° 0 mm 1 mps 763 mmHg 87%
    07:00 +11°C° 0 mm 1 mps 763 mmHg 86%
    08:00 +13°C° 0 mm 1 mps 763 mmHg 79%
    09:00 +15°C° 0 mm 0 mps 763 mmHg 73%
    10:00 +17°C° 0 mm 0 mps 763 mmHg 66%
    11:00 +20°C° 0 mm 1 mps 763 mmHg 64%
    12:00 +19°C° 0 mm 2 mps 763 mmHg 62%
    13:00 +20°C° 0 mm 3 mps 762 mmHg 59%
    14:00 +20°C° 0 mm 3 mps 762 mmHg 61%
    15:00 +20°C° 0 mm 3 mps 761 mmHg 62%
    16:00 +19°C° 0 mm 4 mps 761 mmHg 63%
    17:00 +17°C° 0 mm 3 mps 761 mmHg 70%
    18:00 +15°C° 0 mm 2 mps 761 mmHg 76%
    19:00 +14°C° 0 mm 2 mps 761 mmHg 83%
    20:00 +13°C° 0 mm 2 mps 762 mmHg 84%
    21:00 +12°C° 0 mm 1 mps 762 mmHg 85%
    22:00 +12°C° 0 mm 1 mps 762 mmHg 86%
    23:00 +11°C° 0 mm 1 mps 762 mmHg 86%
    Show more